Vorticity
7 2 8 10 11 6 0 1 15 12 11 9 9 11 8 9 11 9 14 12 1 8 10 20 -5 21 1 -3 11 20 30 10 5 2 0 4 4 6 10 9 6 8 9 10
9 -1 -3 7 11 6 4 -2 16 10 10 9 8 7 8 8 12 9 10 10 15 12 11 7 6 7 10 6 -4 -12 4 5 11 2 5 5 7 7 7 7 10 13 12 6
-3 -0 10 15 8 8 -1 4 17 8 11 5 6 5 7 10 10 9 9 9 6 10 6 14 4 -1 17 3 9 11 6 9 7 6 6 7 5 7 8 7 9 8 8 7
4 5 9 11 11 5 -0 19 13 9 6 2 9 2 8 10 12 11 7 7 12 2 8 1 5 6 13 -2 15 6 7 6 5 6 6 6 7 8 6 5 7 6 9 8
-2 13 18 13 3 14 17 20 10 6 2 3 11 11 6 13 10 6 9 12 2 4 4 7 5 7 13 5 8 6 5 4 6 6 5 4 7 7 6 4 4 8 12 12
18 21 5 3 8 24 19 12 6 3 4 12 10 13 15 10 7 8 7 4 4 6 3 6 5 5 11 12 10 6 6 3 4 4 4 5 6 6 5 6 4 7 13 10
16 7 13 22 25 12 9 5 4 6 12 10 11 16 4 6 6 4 4 4 3 2 4 7 5 13 8 8 6 5 3 4 4 4 4 5 5 6 7 7 7 8 10 9
20 18 20 9 9 9 5 3 5 8 9 9 11 8 1 4 5 7 5 4 7 13 13 9 8 9 10 9 5 3 4 4 4 4 3 3 5 6 7 7 8 9 9 10
11 9 8 8 10 4 3 7 11 12 9 7 6 8 8 7 6 6 7 4 1 -1 6 14 14 7 8 13 6 7 4 5 4 5 5 4 5 6 8 8 8 9 8 10
10 9 8 7 3 3 6 7 13 10 8 7 7 9 5 4 5 7 4 2 3 8 11 12 8 5 7 7 8 6 7 8 7 6 6 5 5 6 8 7 7 10 8 9
7 6 4 3 7 9 10 11 8 6 4 4 4 5 8 5 4 3 -0 -2 8 12 10 8 8 7 5 4 5 7 6 9 8 7 6 5 5 8 6 7 10 10 8 9
6 8 11 8 12 10 10 7 6 6 5 5 5 10 8 8 9 2 3 3 17 15 9 6 8 8 6 4 4 11 9 14 6 7 6 7 5 6 6 9 11 8 9 9
11 11 9 9 8 8 5 5 5 5 5 8 5 8 10 5 3 6 5 9 13 11 9 11 8 4 6 11 12 14 13 7 6 6 6 6 5 7 6 11 10 7 11 8
6 8 9 10 8 5 5 7 6 5 5 5 6 7 8 8 7 13 15 15 10 12 13 12 12 16 22 10 10 9 8 7 5 7 6 4 5 9 6 11 7 9 10 8
7 11 12 10 7 5 5 7 6 6 7 10 7 6 6 8 10 10 10 11 12 11 11 8 7 9 8 6 6 8 7 6 5 7 5 4 7 7 10 10 8 9 9 8
5 9 8 7 6 6 5 9 10 11 10 9 5 14 8 8 8 9 9 9 8 8 7 7 7 7 7 9 9 9 4 5 5 6 6 6 7 7 12 8 9 8 9 6
11 6 7 3 7 9 14 9 14 12 9 7 9 7 8 7 9 9 9 8 5 5 7 6 7 8 7 7 6 5 4 5 6 6 8 6 7 8 11 9 7 8 9 8
7 10 11 9 10 9 9 15 13 12 9 4 5 8 7 6 7 6 4 6 6 4 7 9 9 3 5 6 6 7 6 7 7 7 7 6 8 10 11 9 7 10 8 9
9 10 9 9 6 6 6 11 17 12 6 7 8 6 6 5 6 4 4 5 3 7 8 7 7 6 5 5 7 7 8 8 6 9 6 8 10 10 9 9 10 8 9 10
8 9 11 7 5 6 1 5 9 8 7 6 6 3 6 6 2 5 6 4 5 6 6 4 5 5 7 7 5 7 7 5 7 6 7 7 9 10 9 9 9 11 7 8
7 8 11 9 7 5 2 4 5 10 6 7 5 6 6 4 4 5 5 5 5 6 6 9 10 9 6 5 6 6 6 5 7 9 6 6 10 11 10 10 11 7 8 11
6 7 6 6 7 8 -1 3 -1 7 9 7 7 9 8 7 7 5 6 5 6 5 5 6 7 7 8 8 8 8 7 6 7 7 5 9 14 15 10 10 10 8 9 13
5 8 8 2 6 7 5 5 5 6 4 7 7 7 8 7 6 7 7 8 7 5 6 6 6 7 8 7 7 8 5 7 8 7 8 14 11 14 7 9 8 9 11 14
6 7 6 7 9 9 9 8 5 4 5 5 8 7 7 7 6 8 8 8 9 6 6 6 7 7 8 7 8 8 7 10 8 7 9 13 18 8 8 7 9 11 14 12
7 5 8 8 8 8 7 8 7 7 6 5 3 3 6 6 8 8 6 8 8 11 12 12 10 7 8 8 7 9 6 7 5 9 13 19 8 7 6 10 11 15 12 8
5 6 6 9 8 7 3 6 8 7 6 6 6 7 6 4 5 4 9 10 11 9 8 9 8 8 9 7 7 6 4 4 11 15 18 13 5 5 11 12 15 12 9 8
Height
5875 5875 5873 5874 5874 5874 5871 5870 5865 5864 5864 5863 5863 5860 5859 5857 5856 5853 5851 5851 5850 5849 5848 5846 5844 5841 5839 5837 5834 5832 5830 5828 5827 5827 5826 5824 5822 5821 5819 5815 5811 5808 5803 5799
5867 5866 5866 5866 5866 5866 5865 5864 5861 5859 5859 5860 5859 5856 5855 5854 5853 5850 5849 5849 5847 5847 5844 5842 5840 5837 5836 5835 5832 5829 5827 5825 5824 5822 5821 5820 5818 5815 5812 5808 5804 5800 5797 5792
5858 5857 5857 5857 5858 5860 5859 5858 5856 5855 5854 5854 5855 5853 5850 5849 5848 5847 5845 5844 5843 5842 5840 5838 5837 5835 5834 5831 5829 5826 5823 5821 5820 5818 5817 5815 5812 5809 5805 5800 5796 5793 5789 5785
5849 5848 5849 5849 5851 5852 5852 5852 5851 5850 5851 5849 5852 5851 5846 5845 5843 5842 5841 5841 5840 5838 5836 5835 5834 5832 5830 5828 5826 5823 5820 5818 5816 5814 5812 5809 5806 5802 5798 5794 5790 5785 5781 5777
5838 5840 5840 5842 5843 5844 5845 5846 5846 5846 5845 5846 5846 5846 5841 5840 5838 5838 5837 5837 5836 5835 5833 5832 5830 5828 5826 5825 5823 5820 5818 5816 5814 5812 5808 5804 5800 5797 5793 5788 5784 5779 5775 5770
5828 5832 5834 5833 5835 5837 5839 5840 5840 5841 5841 5842 5840 5841 5838 5836 5836 5834 5834 5833 5832 5831 5829 5827 5826 5824 5822 5820 5819 5817 5814 5812 5809 5807 5803 5800 5795 5791 5786 5782 5777 5773 5768 5762
5822 5823 5825 5825 5827 5831 5834 5835 5836 5837 5837 5837 5836 5837 5834 5834 5832 5831 5830 5829 5828 5827 5825 5823 5821 5820 5818 5817 5815 5812 5810 5807 5804 5801 5798 5794 5790 5785 5779 5775 5770 5765 5760 5754
5813 5816 5818 5820 5823 5826 5828 5829 5831 5831 5832 5831 5831 5832 5831 5830 5828 5828 5826 5825 5823 5821 5820 5819 5817 5815 5814 5812 5810 5807 5805 5802 5799 5795 5792 5788 5783 5778 5773 5767 5762 5757 5751 5746
5808 5810 5813 5815 5818 5821 5822 5823 5825 5826 5827 5827 5828 5829 5827 5824 5824 5822 5822 5820 5818 5816 5815 5813 5811 5810 5808 5807 5805 5802 5800 5797 5793 5789 5786 5781 5776 5771 5766 5760 5754 5749 5743 5738
5803 5806 5807 5811 5813 5815 5816 5817 5820 5821 5822 5823 5822 5823 5822 5820 5819 5817 5817 5816 5814 5811 5809 5806 5805 5803 5801 5801 5798 5796 5793 5790 5787 5783 5779 5774 5769 5764 5758 5752 5746 5741 5735 5729
5798 5800 5803 5806 5808 5809 5811 5812 5814 5816 5817 5817 5817 5819 5817 5815 5814 5812 5811 5809 5807 5805 5802 5800 5799 5797 5795 5793 5791 5789 5786 5783 5779 5776 5771 5766 5761 5756 5750 5743 5738 5732 5726 5720
5792 5794 5798 5799 5802 5804 5805 5806 5809 5809 5811 5811 5812 5814 5812 5810 5808 5806 5805 5803 5802 5800 5798 5795 5793 5790 5788 5787 5785 5783 5779 5776 5772 5768 5764 5758 5753 5747 5741 5735 5729 5723 5716 5710
5786 5789 5791 5794 5798 5799 5800 5802 5804 5804 5805 5805 5805 5808 5805 5804 5801 5798 5797 5797 5795 5793 5792 5789 5787 5785 5783 5781 5778 5776 5772 5768 5765 5760 5755 5749 5744 5738 5732 5726 5719 5713 5707 5701
5780 5784 5787 5790 5791 5794 5796 5797 5799 5799 5799 5799 5800 5799 5799 5796 5794 5791 5791 5790 5789 5787 5785 5783 5782 5780 5777 5774 5772 5768 5765 5761 5757 5752 5746 5741 5735 5729 5722 5716 5709 5704 5698 5692
5776 5779 5781 5784 5787 5789 5790 5792 5793 5793 5793 5793 5795 5793 5793 5788 5787 5786 5785 5783 5782 5780 5779 5777 5775 5773 5771 5767 5764 5761 5757 5753 5748 5743 5738 5732 5726 5719 5713 5707 5700 5694 5688 5682
5770 5773 5776 5778 5781 5783 5784 5786 5787 5787 5786 5786 5786 5788 5783 5784 5782 5781 5779 5778 5777 5775 5773 5771 5768 5766 5763 5760 5756 5752 5749 5744 5739 5734 5729 5723 5717 5710 5704 5697 5691 5685 5678 5672
5765 5767 5771 5772 5774 5776 5778 5779 5779 5778 5778 5778 5779 5779 5778 5778 5776 5774 5773 5771 5770 5768 5766 5764 5761 5758 5755 5752 5749 5744 5740 5736 5731 5726 5720 5714 5708 5701 5694 5688 5681 5675 5668 5662
5759 5761 5764 5766 5767 5768 5772 5772 5771 5772 5771 5771 5772 5771 5771 5771 5769 5768 5766 5765 5763 5761 5759 5757 5754 5752 5748 5744 5740 5736 5732 5727 5722 5717 5711 5705 5698 5692 5684 5677 5671 5664 5657 5650
5753 5754 5756 5758 5761 5762 5765 5766 5766 5765 5764 5765 5764 5764 5764 5764 5762 5760 5759 5757 5756 5754 5752 5749 5747 5744 5740 5735 5731 5727 5723 5719 5713 5707 5701 5694 5687 5680 5673 5667 5660 5653 5646 5639
5746 5747 5750 5752 5754 5755 5758 5759 5759 5759 5758 5757 5757 5757 5757 5757 5755 5753 5752 5749 5748 5746 5744 5741 5738 5734 5730 5726 5722 5718 5714 5709 5703 5697 5690 5683 5676 5669 5662 5655 5649 5642 5634 5627
5738 5740 5743 5744 5746 5749 5751 5750 5751 5752 5752 5750 5750 5749 5748 5747 5746 5745 5743 5741 5739 5737 5734 5732 5728 5725 5721 5717 5712 5708 5703 5697 5691 5685 5679 5672 5664 5657 5651 5644 5637 5631 5623 5615
5731 5732 5735 5736 5738 5739 5741 5739 5742 5742 5742 5741 5741 5740 5740 5739 5738 5736 5734 5732 5730 5727 5724 5721 5718 5715 5711 5706 5702 5697 5691 5685 5679 5673 5666 5659 5652 5646 5639 5633 5627 5620 5612 5604
5722 5726 5726 5729 5731 5730 5729 5730 5730 5730 5730 5731 5732 5733 5732 5731 5729 5727 5725 5722 5720 5717 5714 5711 5707 5704 5700 5695 5690 5685 5679 5673 5667 5661 5655 5647 5640 5634 5628 5622 5616 5608 5601 5593
5711 5714 5717 5717 5722 5720 5720 5719 5718 5717 5718 5719 5721 5721 5720 5720 5718 5717 5715 5712 5709 5706 5702 5699 5695 5691 5687 5682 5677 5672 5667 5661 5656 5649 5642 5635 5629 5622 5617 5611 5604 5597 5589 5582
5701 5704 5706 5707 5709 5707 5707 5706 5707 5707 5708 5708 5709 5709 5709 5708 5706 5704 5701 5698 5695 5693 5690 5687 5682 5678 5674 5670 5665 5660 5655 5649 5643 5636 5629 5623 5616 5612 5606 5600 5592 5584 5577 5570
5692 5693 5693 5695 5696 5692 5696 5695 5696 5697 5697 5697 5698 5698 5696 5694 5693 5689 5687 5685 5682 5680 5677 5673 5668 5665 5662 5658 5653 5647 5642 5636 5630 5623 5617 5610 5605 5600 5594 5587 5580 5572 5566 5559